Location: Beugnon
(47.6222°N, 3.7850°E)
Time: 12:39:41
(UTC+00:00)

STARLINK-1202 - Pass Details

Date: 09 April 2020
Orbit: 549 x 550 km, 53.0° (Epoch: 28 May)

Event Time Altitude Azimuth Distance (km) Brightness Sun altitude
Rises 18:53:58 0° 292° (WNW) 2,724 10.0 -5.3°
Reaches altitude 10° 18:56:17 10° 298° (WNW) 1,829 8.0 -5.6°
Maximum altitude 19:00:16 44° 12° (NNE) 766 4.4 -6.3°
Drops below altitude 10° 19:04:16 10° 86° (E) 1,826 5.7 -6.9°
Enters shadow 19:04:52 - 88° (E) 2,052 5.9 -7.0°
